Custer, SD

5:01 PM MDT on May 24, 2017 (GMT -0600)
Custer County

Weather History for KCUT - June, 2013

Change the Weather History Date:

Wednesday, June 19, 2013

  Actual Average Record
Temperature  
Mean Temperature 63 °F 60 °F  
Max Temperature 76 °F 72 °F 95 °F (1989)
Min Temperature 50 °F 48 °F 26 °F (1946)
Degree Days  
Heating Degree Days 2 6  
Month to date heating degree days 165 171  
Since 1 June heating degree days 165 171  
Since 1 July heating degree days 8245 8340  
Cooling Degree Days 0 1  
Month to date cooling degree days 0 7  
Year to date cooling degree days 2 8  
Since 1 June cooling degree days 0 7  
Growing Degree Days 12 (Base 50)    
Moisture  
Dew Point 52 °F    
Average Humidity 63    
Maximum Humidity 78    
Minimum Humidity 47    
Precipitation  
Precipitation T in 0.09 in 0.85 in (1975)
Month to date precipitation 1.25 2.17  
Year to date precipitation 7.78 9.28  
Sea Level Pressure  
Sea Level Pressure 29.71 in    
Wind  
Wind Speed 8 mph (SSE)    
Max Wind Speed 18 mph    
Max Gust Speed 28 mph    
Visibility 10 miles    
Events      
T = Trace of Precipitation, MM = Missing Value Source: NWS Daily Summary

Daily Weather History Graph

Daily Weather History Graph

Search for Another Location

Airport or City:

Trip Planner

Search our weather history database for the weather conditions in past years. The results will help you decide how hot, cold, wet, or windy it might be!

Date:

Astronomy

Jun. 19, 2013 Rise Set
Actual Time 5:12 AM MDT 8:39 PM MDT
Civil Twilight 4:36 AM MDT 9:15 PM MDT
Nautical Twilight 3:48 AM MDT 10:02 PM MDT
Astronomical Twilight 2:49 AM MDT 11:02 PM MDT
Moon 4:29 PM MDT (6/19) 2:04 AM MDT (6/19)
Length of Visible Light 16h 39m
Length of Day
15h 27m
Waxing Gibbous, 81% of the Moon is Illuminated
Jun 19
Waxing Gibbous
Jun 23
Full
Jun 29
Last Quarter
Jul 8
New
Jul 15
First Quarter

Hourly Weather History & Observations

Time (MDT) Temp. Dew Point Humidity Pressure Visibility Wind Dir Wind Speed Gust Speed Precip Events Conditions
12:53 AM 57.9 °F 44.1 °F 60% 29.82 in 10.0 mi WSW 4.6 mph - N/A   Clear
1:53 AM 53.1 °F 44.1 °F 71% 29.83 in 10.0 mi South 3.5 mph - N/A   Clear
2:53 AM 51.1 °F 44.1 °F 77% 29.83 in 10.0 mi Calm Calm - N/A   Clear
3:53 AM 54.0 °F 43.0 °F 66% 29.82 in 10.0 mi SSE 3.5 mph - N/A   Clear
4:53 AM 54.0 °F 45.0 °F 72% 29.81 in 10.0 mi SSW 5.8 mph - N/A   Clear
5:53 AM 53.1 °F 46.0 °F 77% 29.82 in 10.0 mi Calm Calm - N/A   Clear
6:53 AM 57.9 °F 48.0 °F 70% 29.79 in 10.0 mi South 4.6 mph - N/A   Clear
7:53 AM 62.1 °F 48.9 °F 62% 29.78 in 10.0 mi SSE 4.6 mph - N/A   Clear
8:53 AM 64.9 °F 48.0 °F 54% 29.75 in 10.0 mi SSE 6.9 mph - N/A   Clear
9:53 AM 69.1 °F 48.0 °F 47% 29.71 in 10.0 mi SSE 12.7 mph 18.4 mph N/A   Clear
10:53 AM 69.1 °F 50.0 °F 51% 29.70 in 10.0 mi SSE 12.7 mph 20.7 mph N/A   Clear
11:53 AM 71.1 °F 53.1 °F 53% 29.70 in 10.0 mi ESE 12.7 mph 19.6 mph N/A   Clear
12:53 PM 72.0 °F 54.0 °F 53% 29.69 in 10.0 mi South 11.5 mph 24.2 mph N/A   Partly Cloudy
1:53 PM 73.0 °F 55.0 °F 53% 29.69 in 10.0 mi SE 13.8 mph 26.5 mph N/A   Partly Cloudy
2:53 PM 73.0 °F 54.0 °F 51% 29.69 in 10.0 mi South 15.0 mph 25.3 mph N/A   Clear
3:53 PM 73.9 °F 55.9 °F 53% 29.67 in 10.0 mi SSE 11.5 mph 23.0 mph N/A   Partly Cloudy
4:53 PM 73.0 °F 55.9 °F 55% 29.65 in 10.0 mi ESE 12.7 mph 25.3 mph N/A   Scattered Clouds
5:53 PM 73.0 °F 57.0 °F 57% 29.65 in 10.0 mi ESE 9.2 mph 20.7 mph N/A   Partly Cloudy
6:53 PM 72.0 °F 57.9 °F 61% 29.64 in 10.0 mi SE 10.4 mph - N/A   Clear
7:53 PM 71.1 °F 59.0 °F 66% 29.62 in 10.0 mi ESE 9.2 mph 16.1 mph N/A   Clear
8:53 PM 69.1 °F 59.0 °F 70% 29.64 in 10.0 mi SE 6.9 mph - N/A   Partly Cloudy
9:53 PM 69.1 °F 57.9 °F 68% 29.61 in 10.0 mi SE 9.2 mph 21.9 mph N/A   Clear
10:53 PM 68.0 °F 57.9 °F 70% 29.61 in 10.0 mi Variable 6.9 mph 16.1 mph 0.00 in   Clear
11:53 PM 64.9 °F 57.0 °F 75% 29.63 in 10.0 mi NE 4.6 mph - N/A   Clear